[[{"header":{"parameterUnit":"m.s-1","parameterCategory":1,"la1":30.2991,"la2":30.254,"lo1":-89.0895,"lo2":-89.0444,"dy":0.0017,"dx":0.0017,"nx":28,"ny":28,"refTime":"2023-08-10T03:00:00:Z","depth":0,"parameterNumber":2,"parameterNumberName":"U-component_of_WINDS"},"data":[0,0,0,0,0,0,0,0,0,0,0,0,0,0,0,0,0,0,0,0,0,0,0,0,0,0,0,0,0,0,0,0,0,0,0,0,0,0,0,0,0,0,0,0,0,0,0,0,0,0,0,0,0,0,0,0,0,0,2.301,2.3011,0,2.3064,2.3065,2.3065,2.3083,2.3083,2.3082,2.3082,2.3142,2.3144,2.3145,0,0,0,0,0,0,0,0,0,0,0,0,0,2.2925,2.2927,2.301,2.3011,2.3011,2.3064,2.3065,2.3066,2.3083,2.3083,2.3082,2.3082,2.3141,2.3143,2.3146,0,0,0,0,0,0,0,0,0,0,0,0,0,2.2969,2.2927,2.301,2.3026,2.3028,2.3064,2.3065,2.3066,2.3083,2.3083,2.3082,2.3082,2.3141,2.3143,2.3146,2.3171,0,0,2.3154,2.3156,0,0,0,0,0,0,0,0,2.2967,2.2972,2.3023,2.3025,2.3027,2.3066,2.3057,2.3101,2.3083,2.3062,2.3082,2.3082,2.3117,2.3122,2.3133,2.3173,2.3176,2.3155,2.3156,2.3157,2.3158,0,0,0,0,0,0,0,2.2963,2.297,2.3032,2.3024,2.3027,2.3032,2.3038,2.3065,2.3092,2.3064,2.3066,2.3071,2.3118,2.313,2.3135,2.3177,2.3154,2.3157,2.3159,2.316,2.324,2.3241,0,0,0,0,0,0,2.2957,2.2967,2.303,2.3033,2.2995,2.3034,2.304,2.3054,2.3091,2.3096,2.3072,2.3072,2.3126,2.3131,2.3137,2.3168,2.3157,2.316,2.3162,2.324,2.3241,2.3241,0,0,0,0,0,0,2.2955,2.2962,2.3028,2.3001,2.3009,2.3036,2.3051,2.3056,2.3068,2.3097,2.3102,2.3079,2.3126,2.3133,2.3162,2.3171,2.3161,2.3164,2.3239,2.324,2.3241,2.3231,0,0,0,0,0,0,2.2953,2.2962,2.297,2.3001,2.3011,2.3051,2.3052,2.3057,2.3072,2.3073,2.3105,2.311,2.3126,2.3158,2.3165,2.3174,2.3166,2.3239,2.324,2.3241,2.3231,2.3232,2.3232,0,0,0,0,0,2.295,2.2966,2.2971,2.2978,2.3022,2.3051,2.3057,2.3074,2.3072,2.3082,2.3101,2.3109,2.3168,2.316,2.3168,2.3179,2.3238,2.3239,2.3241,2.3231,2.3231,2.3232,0,0,0,0,0,0,2.2938,2.2971,2.2976,2.3003,2.3024,2.3054,2.3066,2.3074,2.3097,2.3097,2.3119,2.3126,2.3153,2.3169,2.316,2.3205,2.3204,2.3207,2.3194,2.3195,2.3195,2.3191,2.3168,0,0,0,0,0,2.2938,2.2958,2.2986,2.3007,2.3017,2.304,2.3053,2.3064,2.3088,2.3097,2.3118,2.3141,2.3165,2.3181,2.3205,2.3233,2.3241,2.3244,2.3245,2.3245,2.3248,2.3264,2.3266,2.3245,2.3245,2.3245,0,0,2.294,2.296,2.2971,2.3005,2.3023,2.3044,2.3047,2.307,2.3086,2.3101,2.3129,2.3145,2.3173,2.3202,2.3215,2.3216,2.3255,2.3247,2.3247,2.3249,2.3266,2.3268,2.327,2.3246,2.3245,2.3245,0,0,2.2953,2.297,2.2989,2.3007,2.3033,2.3048,2.3052,2.3081,2.3092,2.312,2.3132,2.3152,2.3193,2.3212,2.3227,2.3247,2.3256,2.3255,2.3258,2.3274,2.3276,2.3277,2.3285,2.3288,2.3257,2.3257,2.3257,0,2.2952,2.2983,2.2999,2.302,2.3035,2.3048,2.3069,2.3085,2.3118,2.3129,2.3128,2.3179,2.3199,2.3232,2.3237,2.3249,2.3256,2.3251,2.3274,2.3276,2.3278,2.3285,2.3288,2.3256,2.3256,2.3256,2.3257,0,2.298,2.3002,2.3014,2.3044,2.3061,2.3081,2.3102,2.3117,2.3126,2.3141,2.3171,2.3194,2.3223,2.3232,2.3242,2.3267,2.3266,2.327,2.3269,2.3279,2.3287,2.329,2.3256,2.3256,2.3256,2.3256,0,0,2.2988,2.3026,2.3031,2.3045,2.3074,2.3092,2.3113,2.314,2.3153,2.3175,2.3194,2.3228,2.3231,2.3248,2.3261,2.3275,2.329,2.3277,2.3278,2.3279,2.3319,2.3317,2.332,2.3295,2.3296,2.3296,2.3317,0,2.3006,2.3044,2.3059,2.309,2.311,2.3123,2.3142,2.3163,2.3178,2.3198,2.3215,2.3239,2.3241,2.3251,2.3266,2.3285,2.3298,2.3283,2.3315,2.3316,2.3308,2.3324,2.3322,2.334,2.332,2.3321,2.3321,0,2.3031,2.3052,2.3085,2.3112,2.3121,2.3138,2.3164,2.3183,2.3207,2.3217,2.3235,2.3247,2.3271,2.3269,2.3303,2.3293,2.3306,2.3318,2.3319,2.3323,2.3319,2.3329,2.3346,2.3349,2.3326,2.3325,2.3325,0,2.3034,2.3071,2.3095,2.3107,2.3139,2.315,2.3165,2.3188,2.3203,2.3226,2.3236,2.3262,2.3277,2.3297,2.3316,2.3312,2.3349,2.3347,2.3359,2.3358,2.3367,2.3366,2.3387,2.3374,2.3374,2.3374,2.3374,0,2.3052,2.3072,2.3097,2.3112,2.3135,2.3153,2.3175,2.3191,2.3211,2.3231,2.3244,2.3262,2.3285,2.3306,2.3321,2.3348,2.3354,2.3364,2.3367,2.3363,2.3362,2.3373,2.3372,2.3375,2.3375,2.3375,2.3374,0,2.306,2.3077,2.3105,2.3133,2.314,2.3156,2.318,2.3196,2.3211,2.3235,2.3242,2.3266,2.3292,2.3312,2.3346,2.3356,2.3384,2.3388,2.3376,2.3378,2.3388,2.3387,2.3418,2.3423,2.3406,2.3406,2.3406,0,2.3071,2.3086,2.3115,2.3128,2.3142,2.3163,2.3178,2.3196,2.3211,2.324,2.3252,2.3279,2.3301,2.3341,2.3363,2.3389,2.3394,2.3403,2.3398,2.3393,2.3395,2.3394,2.3396,2.3404,2.3404,2.3404,2.3404,0,2.3088,2.3096,2.3116,2.314,2.3157,2.3177,2.3197,2.3207,2.3229,2.3246,2.3272,2.3289,2.3323,2.3349,2.3377,2.3393,2.3403,2.3405,2.3409,2.3405,2.3397,2.3402,2.3378,2.3405,2.3405,2.3404,2.3404,2.3404,2.3098,2.3112,2.3134,2.3157,2.3174,2.3192,2.3208,2.3225,2.3246,2.3275,2.3284,2.3311,2.3335,2.3374,2.339,2.3412,2.3413,2.3418,2.342,2.3421,2.3421,2.3393,2.3417,2.3417,2.3417,2.3417,2.3417,0,2.3116,2.3131,2.3151,2.3179,2.3197,2.3202,2.3225,2.324,2.3263,2.3284,2.3305,2.3335,2.336,2.3383,2.341,2.3423,2.3429,2.343,2.343,2.3433,2.3419,2.3413,2.3425,2.3425,2.3425,2.3425,2.3425,2.3425,2.3128,2.3152,2.3163,2.3196,2.3211,2.3236,2.3249,2.3266,2.3283,2.3316,2.3336,2.3351,2.3373,2.3401,2.3425,2.3432,2.3441,2.3442,2.3449,2.3435,2.3434,2.3433,2.3428,2.3444,2.3444,2.3462,2.3463,2.3463]},{"header":{"parameterUnit":"m.s-1","parameterCategory":1,"la1":30.2991,"la2":30.254,"lo1":-89.0895,"lo2":-89.0444,"dy":0.0017,"dx":0.0017,"nx":28,"ny":28,"refTime":"2023-08-10T03:00:00:Z","depth":0,"parameterNumber":3,"parameterNumberName":"V-component_of_WINDS"},"data":[0,0,0,0,0,0,0,0,0,0,0,0,0,0,0,0,0,0,0,0,0,0,0,0,0,0,0,0,0,0,0,0,0,0,0,0,0,0,0,0,0,0,0,0,0,0,0,0,0,0,0,0,0,0,0,0,0,0,3.1787,3.1787,0,3.1766,3.1766,3.1766,3.1742,3.1741,3.1741,3.174,3.1719,3.1718,3.1718,0,0,0,0,0,0,0,0,0,0,0,0,0,3.1805,3.1805,3.1787,3.1787,3.1787,3.1766,3.1766,3.1766,3.1742,3.1741,3.1741,3.174,3.1719,3.1719,3.1718,0,0,0,0,0,0,0,0,0,0,0,0,0,3.1792,3.1805,3.1787,3.1772,3.1771,3.1767,3.1766,3.1766,3.1742,3.1741,3.1741,3.174,3.1719,3.1719,3.1718,3.1727,0,0,3.1717,3.1717,0,0,0,0,0,0,0,0,3.1793,3.1791,3.1775,3.1773,3.1771,3.1756,3.1764,3.1753,3.1742,3.1753,3.174,3.174,3.1732,3.173,3.1727,3.1726,3.1725,3.1717,3.1717,3.1717,3.1717,0,0,0,0,0,0,0,3.1794,3.1792,3.1779,3.1774,3.1772,3.1766,3.1764,3.1762,3.1745,3.1752,3.175,3.1748,3.1731,3.1728,3.1727,3.1725,3.1717,3.1717,3.1717,3.1716,3.1729,3.1729,0,0,0,0,0,0,3.1797,3.1793,3.178,3.1778,3.1781,3.1766,3.1763,3.1761,3.1745,3.1742,3.1748,3.1747,3.1729,3.1727,3.1726,3.1734,3.1717,3.1716,3.1716,3.1728,3.1729,3.1729,0,0,0,0,0,0,3.1797,3.1796,3.178,3.1785,3.1783,3.1766,3.1764,3.1761,3.1759,3.1743,3.174,3.1749,3.1728,3.1726,3.1727,3.1733,3.1716,3.1716,3.1728,3.1728,3.1729,3.1752,0,0,0,0,0,0,3.1798,3.1796,3.18,3.1785,3.1783,3.1782,3.1765,3.1761,3.1758,3.1756,3.1742,3.1739,3.1728,3.1727,3.1726,3.1732,3.1716,3.1727,3.1728,3.1729,3.175,3.1753,3.1756,0,0,0,0,0,3.1799,3.1807,3.18,3.1799,3.1787,3.1782,3.1781,3.1767,3.1759,3.1762,3.1752,3.174,3.1733,3.1728,3.1726,3.1732,3.1726,3.1728,3.1729,3.1749,3.1753,3.1756,0,0,0,0,0,0,3.1822,3.1805,3.1797,3.1801,3.1793,3.1778,3.1782,3.1771,3.1766,3.1764,3.1747,3.1744,3.1747,3.174,3.1734,3.174,3.1728,3.1729,3.1744,3.1747,3.175,3.1751,3.1715,0,0,0,0,0,3.1828,3.1827,3.1811,3.1816,3.1813,3.1798,3.1796,3.1786,3.1777,3.1774,3.1764,3.1756,3.1751,3.1749,3.1745,3.175,3.1746,3.1753,3.1756,3.1758,3.1759,3.176,3.1763,3.1733,3.1733,3.1733,0,0,3.184,3.183,3.183,3.1821,3.1814,3.1812,3.1796,3.1795,3.1793,3.1774,3.1773,3.1766,3.1755,3.1758,3.1759,3.1752,3.1766,3.176,3.1762,3.1761,3.1761,3.1764,3.1767,3.1734,3.1734,3.1734,0,0,3.186,3.1853,3.1856,3.1849,3.1839,3.1829,3.183,3.1816,3.181,3.181,3.1795,3.1793,3.1786,3.1779,3.1775,3.1792,3.178,3.1791,3.1805,3.1806,3.1808,3.181,3.1815,3.1817,3.1792,3.1792,3.1792,0,3.1876,3.1873,3.1859,3.1858,3.1854,3.1837,3.1839,3.1834,3.1822,3.182,3.1813,3.1804,3.1796,3.1796,3.18,3.1798,3.1797,3.1792,3.1809,3.1811,3.1812,3.1817,3.1819,3.1793,3.1793,3.1793,3.1793,0,3.1892,3.189,3.1894,3.1883,3.1879,3.1881,3.1866,3.1864,3.1855,3.1846,3.1845,3.1834,3.1827,3.1827,3.1817,3.1825,3.1821,3.1812,3.18,3.1817,3.182,3.1822,3.1795,3.1795,3.1794,3.1794,0,0,3.1926,3.1907,3.1909,3.1903,3.1891,3.1889,3.1889,3.1882,3.188,3.1873,3.1872,3.1866,3.1857,3.1853,3.1842,3.1844,3.1857,3.1834,3.1834,3.1838,3.1863,3.1869,3.1872,3.1849,3.185,3.185,3.1863,0,3.1943,3.1942,3.1929,3.1932,3.1929,3.1913,3.1913,3.1905,3.1896,3.1892,3.1883,3.1879,3.1868,3.1865,3.1865,3.1855,3.1861,3.1854,3.1847,3.1847,3.1849,3.1874,3.1881,3.1894,3.1865,3.1865,3.1866,0,3.1962,3.1956,3.1958,3.1945,3.1943,3.1943,3.1935,3.1932,3.1923,3.1916,3.1911,3.1899,3.1898,3.1887,3.1884,3.1879,3.1876,3.187,3.1871,3.1869,3.1857,3.1871,3.1898,3.19,3.1868,3.1868,3.1868,0,3.1985,3.1977,3.1977,3.1973,3.1958,3.1958,3.1952,3.1942,3.1938,3.1931,3.1928,3.1922,3.1917,3.1912,3.1899,3.1892,3.1897,3.1885,3.1891,3.1891,3.1892,3.1892,3.1917,3.1891,3.1891,3.1891,3.1891,0,3.2004,3.2006,3.1987,3.1987,3.1988,3.1974,3.1975,3.1967,3.1958,3.1956,3.1942,3.194,3.1923,3.1919,3.1909,3.1908,3.1906,3.19,3.1897,3.1901,3.1901,3.1898,3.1896,3.1892,3.1892,3.1892,3.1892,0,3.2029,3.2017,3.2016,3.2001,3.1998,3.1999,3.1987,3.1986,3.1977,3.1974,3.1972,3.1957,3.1952,3.1939,3.193,3.1923,3.1923,3.1919,3.1927,3.1925,3.193,3.193,3.1953,3.1955,3.193,3.193,3.193,0,3.2041,3.2042,3.2028,3.2026,3.202,3.2017,3.2013,3.1998,3.1995,3.1984,3.1984,3.1978,3.1971,3.1963,3.1951,3.1944,3.1939,3.1947,3.1937,3.1941,3.1937,3.1937,3.1937,3.1949,3.195,3.195,3.195,0,3.2064,3.2058,3.2053,3.2047,3.2042,3.2036,3.2029,3.2028,3.2012,3.2009,3.2003,3.1998,3.1989,3.1982,3.1973,3.1966,3.1955,3.1954,3.1954,3.1957,3.1962,3.1958,3.1932,3.1953,3.1953,3.1952,3.1952,3.1952,3.2083,3.2082,3.2072,3.2067,3.2061,3.2054,3.2053,3.2043,3.2038,3.203,3.2022,3.2017,3.2007,3.1993,3.1987,3.1982,3.1977,3.1978,3.1978,3.1978,3.198,3.1963,3.1981,3.1981,3.1981,3.1981,3.198,0,3.2104,3.2097,3.2092,3.2083,3.2079,3.207,3.2062,3.2058,3.2054,3.2046,3.204,3.2034,3.2027,3.2015,3.2007,3.2006,3.2,3.2004,3.2003,3.2002,3.1986,3.1985,3.2008,3.2008,3.2008,3.2008,3.2008,3.2008,3.2114,3.2113,3.2106,3.2102,3.2094,3.2089,3.2085,3.2079,3.2072,3.2066,3.206,3.2053,3.2042,3.2034,3.2027,3.2023,3.2021,3.2026,3.2021,3.2006,3.2003,3.2,3.2,3.2026,3.2026,3.2037,3.2037,3.2037]}]]